SCP
0 0 0 0 0 0 0 0 0 0 0 0 0 0 0 0 0 0 0 0 0 0 0 0 0 0 0 0 0 0 0 0 0 0 1 1 1 1 2 3 3 1 1 0
0 0 0 0 0 0 0 0 0 0 0 0 0 0 0 0 0 0 0 0 0 0 0 0 0 0 0 0 0 0 0 0 0 0 1 1 1 1 2 3 2 1 1 0
0 0 0 0 0 0 0 0 0 0 0 0 0 0 0 0 0 0 0 0 0 0 0 0 0 0 0 0 0 0 0 0 0 0 0 1 1 1 1 2 2 1 1 1
0 0 0 0 0 0 0 0 0 0 0 0 0 0 0 0 0 0 0 0 0 0 0 0 0 0 0 0 0 0 0 0 0 0 0 0 1 1 1 1 2 1 1 1
0 0 0 0 0 0 0 0 0 0 0 0 0 0 0 0 0 0 0 0 0 0 0 0 0 0 0 0 0 0 0 0 0 0 0 0 0 0 1 1 1 1 1 1
0 0 0 0 0 0 0 0 0 0 0 0 0 0 0 0 0 0 0 0 0 0 0 0 0 0 0 0 0 0 0 0 0 0 0 0 0 0 1 1 1 1 1 1
0 0 0 0 0 0 0 0 0 0 0 0 0 0 0 0 0 0 0 0 0 0 0 0 0 0 0 0 0 0 0 0 0 0 0 0 0 0 0 1 1 1 1 1
0 0 0 0 0 0 0 0 0 0 0 0 0 0 0 0 0 0 0 0 0 0 0 0 0 0 0 0 0 0 0 0 0 0 0 0 0 0 0 0 1 1 1 1
0 0 0 0 0 0 0 0 0 0 0 0 0 0 0 0 0 0 0 0 0 0 0 0 0 0 0 0 0 0 0 0 0 0 0 0 0 0 0 0 0 1 1 1
0 0 0 0 0 0 0 0 0 0 0 0 0 0 0 0 0 0 0 0 0 0 0 0 0 0 0 0 0 0 0 0 0 0 0 0 0 0 0 0 0 0 1 1
0 0 0 0 0 0 0 0 0 0 0 0 0 0 0 0 0 0 0 0 0 0 0 0 0 0 0 0 0 0 0 0 0 0 0 0 0 0 0 0 0 0 0 1
0 0 0 0 0 0 0 0 0 0 0 0 0 0 0 0 0 0 0 0 0 0 0 0 0 0 0 0 0 0 0 0 0 0 0 0 0 0 0 0 0 0 0 1
0 0 0 0 0 0 0 0 0 0 0 0 0 0 0 0 0 0 0 0 0 0 0 0 0 0 0 0 0 0 0 0 0 0 0 0 0 0 0 0 0 0 0 0
0 0 0 0 0 0 0 0 0 0 0 0 0 0 0 0 0 0 0 0 0 0 0 0 0 0 0 0 0 0 0 0 0 0 0 0 0 0 0 0 0 0 0 0
0 0 0 0 0 0 0 0 0 0 0 0 0 0 0 0 0 0 0 0 0 0 0 0 0 0 0 0 0 0 0 0 0 0 0 0 0 0 0 0 0 0 0 0
0 0 0 0 0 0 0 0 0 0 0 0 0 0 0 0 0 0 0 0 0 0 0 0 0 0 0 0 0 0 0 0 0 0 0 0 0 0 0 0 0 0 0 0
0 0 0 0 0 0 0 0 0 0 0 0 0 0 0 0 0 0 0 0 0 0 0 0 0 0 0 0 0 0 0 0 0 0 0 0 0 0 0 0 0 0 0 0
0 0 0 0 0 0 0 0 0 0 0 0 0 0 0 0 0 0 0 0 0 0 0 0 0 0 0 0 0 0 0 0 0 0 0 0 0 0 0 0 0 0 0 0
0 0 0 0 0 0 0 0 0 0 0 0 0 0 0 0 0 0 0 0 0 0 0 0 0 0 0 0 0 0 0 0 0 0 0 0 0 0 0 0 0 0 0 0
0 0 0 0 0 0 0 0 0 0 0 0 0 0 0 0 0 0 0 0 0 0 0 0 0 0 0 0 0 0 0 0 0 0 0 0 0 0 0 0 0 0 0 0
0 0 0 0 0 0 0 0 0 0 0 0 0 0 0 0 0 0 0 0 0 0 0 0 0 0 0 0 0 0 0 0 0 0 0 0 0 0 0 0 0 0 0 0
0 0 0 0 0 0 0 0 0 0 0 0 0 0 0 0 0 0 0 0 0 0 0 0 0 0 0 0 0 0 0 0 0 0 0 0 0 0 0 0 0 0 0 0
0 0 0 0 0 0 0 0 0 0 0 0 0 0 0 0 0 0 0 0 0 0 0 0 0 0 0 0 0 0 0 0 0 0 0 0 0 0 0 0 0 0 0 0
0 0 0 0 0 0 0 0 0 0 0 0 0 0 0 0 0 0 0 0 0 0 0 0 0 0 0 0 0 0 0 0 0 0 0 0 0 0 0 0 0 0 0 0
0 0 0 0 0 0 0 0 0 0 0 0 0 0 0 0 0 0 0 0 0 0 0 0 0 0 0 0 0 0 0 0 0 0 0 0 0 0 0 0 0 0 0 0
0 0 0 0 0 0 0 0 0 0 0 0 0 0 0 0 0 0 0 0 0 0 0 0 0 0 0 0 0 0 0 0 0 0 0 0 0 0 0 0 0 0 0 0
Wind_Speed
3 3 5 5 6 6 6 6 7 5 1 3 8 10 9 6 7 8 7 6 6 5 4 4 4 4 4 4 4 4 4 4 4 3 3 3 3 2 2 2 2 2 2 2
3 6 5 3 3 5 6 7 7 5 1 3 7 12 10 9 9 8 8 6 5 4 3 3 4 4 4 4 4 4 5 5 4 3 3 3 3 2 3 2 3 3 3 3
6 1 2 4 4 5 6 6 5 5 5 5 7 9 8 6 6 5 5 4 3 3 3 3 4 4 4 4 4 4 4 4 4 3 3 2 2 2 2 3 3 3 3 4
5 3 2 3 4 5 5 2 4 5 4 4 2 6 5 4 5 5 5 3 3 2 2 2 3 3 4 4 3 3 3 3 4 4 4 5 5 4 4 3 3 3 4 4
3 2 3 4 4 4 2 2 3 4 4 5 4 6 7 3 5 5 4 3 3 3 3 2 3 2 2 3 3 3 3 3 3 3 4 5 4 3 2 2 3 4 4 4
3 1 1 2 1 2 1 2 3 3 2 5 6 6 7 3 4 3 3 4 3 3 2 2 2 2 2 2 2 2 3 3 3 3 4 4 4 4 3 3 3 3 3 3
4 4 2 1 1 2 2 1 1 2 3 6 3 5 8 2 1 2 2 2 3 4 3 2 2 2 2 2 2 2 2 2 3 4 4 4 4 4 4 4 4 4 3 3
4 4 6 3 3 3 4 3 3 3 4 3 1 7 6 1 2 2 2 2 2 2 2 2 2 2 2 2 2 2 2 2 2 3 4 4 4 3 3 4 4 4 4 4
4 3 2 3 1 1 3 4 2 1 1 3 6 5 3 1 2 2 2 2 2 2 2 2 2 2 1 2 2 2 2 2 2 2 3 3 3 3 3 3 3 3 3 3
2 2 2 2 1 3 1 1 2 3 3 5 6 5 4 2 2 2 2 1 1 2 2 2 2 2 1 1 1 1 1 2 1 1 1 2 2 3 2 2 3 3 3 3
2 2 2 3 6 7 4 3 3 3 3 3 4 5 1 3 3 3 3 2 2 2 2 2 2 2 2 1 1 1 0 1 1 1 1 1 1 2 2 2 3 2 3 3
3 2 4 4 1 1 3 5 6 4 5 4 4 7 1 1 2 2 2 1 1 1 2 2 2 2 1 1 1 1 0 0 1 1 1 1 1 1 2 2 2 2 3 3
2 3 2 2 1 1 3 4 5 3 2 4 5 8 0 1 1 0 1 1 1 1 1 2 2 1 1 0 0 0 0 0 0 0 1 1 1 2 2 2 2 2 3 3
2 3 6 7 2 3 5 5 6 6 5 7 10 10 6 4 2 2 1 1 1 1 1 1 1 1 1 0 0 0 1 1 0 0 1 1 2 2 2 2 2 2 2 3
2 4 5 7 6 3 5 7 9 12 11 9 10 10 10 6 4 2 1 1 1 1 1 1 1 1 1 0 1 1 1 1 1 1 1 2 2 2 2 2 2 2 2 3
2 3 3 6 6 6 9 10 12 14 13 14 14 16 8 6 4 3 2 2 3 3 2 2 2 2 2 1 1 1 1 1 1 1 2 2 2 2 2 2 2 2 2 3
3 3 2 5 2 3 11 12 13 11 10 10 15 14 6 6 4 4 4 4 3 3 3 3 3 2 2 2 2 2 1 1 1 1 2 2 2 2 2 2 2 2 3 3
5 4 3 3 0 10 10 3 8 11 11 11 10 7 6 6 4 4 3 3 4 3 2 2 1 1 1 1 1 0 0 1 1 1 2 2 2 3 2 2 3 3 3 3
6 6 4 3 6 10 8 3 4 6 9 8 10 9 6 5 4 4 2 2 2 2 1 1 0 0 0 0 0 0 1 1 2 2 3 3 3 3 3 3 3 3 3 3
5 5 5 5 6 9 5 1 1 2 8 4 5 6 5 2 3 4 2 2 2 1 1 1 1 1 1 0 1 0 1 2 3 3 3 3 2 3 3 4 4 3 3 3
5 6 8 9 8 9 4 2 3 4 7 2 2 3 2 3 5 3 2 2 1 1 1 1 1 0 1 1 1 1 2 3 3 3 3 3 2 3 3 3 3 3 3 2
9 8 8 7 9 12 3 4 6 6 2 2 2 2 2 3 3 2 2 2 1 1 1 1 1 1 1 1 0 2 3 3 3 3 3 3 3 3 2 3 3 2 2 2
9 9 7 10 10 4 5 5 3 1 2 2 2 3 2 3 4 3 3 2 2 1 1 1 1 1 2 1 1 3 4 3 3 3 3 3 3 3 2 2 3 2 2 2
5 4 4 5 7 5 4 3 3 2 2 2 2 3 2 3 4 3 3 2 2 2 1 1 0 2 2 2 2 2 3 3 2 3 3 3 3 3 3 2 2 2 3 2
5 5 4 7 6 4 5 4 3 2 2 2 3 3 3 3 4 3 3 2 2 2 1 1 1 2 3 3 3 3 2 2 3 3 3 3 3 3 3 3 3 3 3 4
5 7 8 8 6 5 5 2 1 2 3 3 3 4 3 3 4 3 3 2 2 2 2 2 2 3 3 3 3 3 2 2 2 3 3 3 2 2 2 3 3 5 5 6
Wind_Direction
185 212 216 217 221 257 287 284 281 282 266 257 259 269 269 249 243 245 241 233 227 226 206 185 178 171 168 167 172 176 172 176 174 174 176 178 185 182 178 170 170 171 169 172
193 230 240 256 251 255 265 273 276 288 290 276 275 272 264 249 236 234 235 229 222 218 197 182 176 168 173 174 179 184 183 184 191 193 188 181 177 185 185 182 178 174 175 186
216 227 231 234 244 253 254 256 275 291 307 262 276 277 240 238 224 222 224 217 206 205 202 184 180 176 174 183 188 192 191 194 196 189 173 167 172 178 185 188 188 186 185 192
231 236 237 229 237 243 255 285 287 291 299 280 264 289 261 237 226 215 210 207 205 191 176 166 172 178 178 186 187 186 194 198 196 188 185 185 189 196 202 195 187 181 187 195
218 182 220 231 241 239 256 301 279 275 269 281 245 257 274 223 234 221 201 187 178 170 174 176 171 168 169 176 181 184 190 194 197 196 194 194 199 199 189 186 185 186 191 195
243 216 228 251 266 228 270 270 251 246 253 261 225 224 274 226 223 197 186 175 163 151 152 146 130 127 139 146 159 173 184 188 188 193 201 201 198 196 189 193 198 195 193 195
218 203 192 198 202 194 211 161 295 251 224 246 205 219 252 240 109 147 164 161 153 146 149 151 136 146 161 163 162 172 181 193 190 195 203 208 206 203 203 199 203 196 195 199
222 222 182 191 200 194 208 198 191 232 257 286 231 236 253 180 108 100 112 118 104 123 144 147 143 145 162 170 165 164 185 209 202 195 206 213 210 208 212 209 202 197 198 199
228 229 130 161 234 217 198 214 252 278 295 283 254 248 258 144 108 104 111 122 148 147 146 136 129 132 149 164 169 176 191 215 225 210 202 207 208 209 211 208 200 196 193 187
275 248 186 147 198 251 262 202 148 194 236 261 267 248 247 201 197 160 150 164 151 130 123 121 120 119 117 134 149 168 192 206 219 211 212 224 222 215 207 202 208 203 193 184
259 214 202 186 200 196 182 200 202 214 228 232 269 263 223 169 174 174 179 171 156 148 144 134 123 121 122 115 130 148 198 211 221 214 217 236 242 228 207 209 219 214 203 194
205 209 234 217 217 324 203 207 189 197 234 233 259 268 352 76 120 130 135 126 121 117 118 117 110 101 98 102 97 121 192 233 240 216 210 227 239 241 226 225 224 217 216 208
168 186 228 246 237 245 235 229 221 223 228 221 229 260 13 46 59 127 156 153 148 127 100 99 104 111 113 85 25 49 220 298 283 221 222 244 243 241 239 238 234 224 224 219
200 211 210 220 225 177 216 222 209 203 219 235 234 256 283 294 296 291 237 213 187 183 159 142 139 144 141 146 290 322 352 345 293 249 234 254 257 253 249 247 243 240 234 228
196 235 243 261 275 256 235 226 210 213 222 232 251 256 266 275 278 273 244 222 215 219 207 190 182 185 183 230 270 288 298 321 327 306 274 274 282 277 267 258 250 244 243 243
207 236 257 265 250 258 266 248 227 227 232 244 262 269 266 275 282 283 264 240 238 233 221 213 207 206 211 219 239 268 288 300 307 292 287 287 283 284 276 267 256 249 248 248
198 197 217 257 253 302 265 237 221 226 223 221 241 253 272 276 279 275 269 257 252 242 224 217 215 214 218 219 214 228 256 282 275 275 288 296 288 277 273 270 259 245 248 246
188 189 213 256 285 242 244 193 205 227 236 231 246 268 275 271 273 269 261 250 263 261 246 227 207 197 199 204 222 237 280 277 280 290 294 299 298 292 287 273 262 260 258 248
198 188 206 215 243 266 273 227 201 225 255 236 243 258 271 288 305 283 279 253 253 257 256 221 171 146 128 151 162 84 300 291 288 285 285 288 285 283 282 275 272 266 260 256
211 198 205 215 227 242 256 176 203 204 263 254 240 255 264 277 272 272 334 356 360 7 40 66 60 53 63 19 40 306 288 290 285 290 291 293 288 279 276 275 278 274 261 258
180 200 215 222 236 255 256 170 128 192 253 308 271 261 256 244 251 282 348 347 354 27 55 68 72 46 327 7 31 279 285 281 296 310 307 304 295 286 283 285 286 282 272 268
180 186 203 206 226 246 191 148 190 230 292 329 326 315 291 284 306 322 327 322 338 17 38 60 51 343 350 3 320 280 283 301 317 314 308 303 300 294 290 284 283 278 269 264
200 196 193 201 219 242 170 201 228 247 272 291 301 303 299 293 296 300 296 301 329 356 9 33 25 322 330 343 310 275 296 319 320 313 303 302 301 291 285 274 274 275 262 257
224 203 212 242 252 259 249 251 265 264 262 284 283 287 290 280 284 293 301 311 321 328 333 357 343 284 295 315 312 288 302 321 311 294 295 298 296 297 296 282 265 259 254 252
210 182 214 246 264 286 269 250 263 293 313 311 308 288 275 271 273 274 279 284 293 303 314 310 267 272 285 303 307 310 313 312 294 287 287 287 282 283 287 286 275 270 258 243
201 195 202 230 226 221 252 252 263 271 282 288 296 300 306 283 275 277 278 284 285 288 305 299 288 282 285 291 297 306 301 275 268 279 283 282 282 283 283 289 298 290 283 285